When you browse on this site, cookies collect data to enhance your experience and personalize the content and advertising you see.
Visit our Privacy Policy to learn more. By continuing to use the site, you agree to this use of cookies and data.
  • In United Kingdom
  • List of Countries
  • For 7 days
  • Water Temperature
  • Weather Map
  • Weather Widgets
  • user-avatar
    Login

    Hourly Weather Armagh

    Today, 11 December, Wednesday

    Time Temperature Precipitation Wind Pressure Humidity
    00:00 +2°C° 0 mm 7 mps 744 mmHg 82%
    01:00 +2°C° 0 mm 7 mps 744 mmHg 82%
    02:00 +2°C° 0 mm 7 mps 744 mmHg 82%
    03:00 +2°C° 0 mm 6 mps 743 mmHg 82%
    04:00 +1°C° 0 mm 6 mps 743 mmHg 83%
    05:00 +1°C° 0 mm 6 mps 742 mmHg 84%
    06:00 +1°C° 0 mm 5 mps 742 mmHg 86%
    07:00 +1°C° 0 mm 5 mps 742 mmHg 87%
    08:00 +1°C° 0 mm 5 mps 742 mmHg 87%
    09:00 +1°C° 0 mm 5 mps 742 mmHg 88%
    10:00 +1°C° 0 mm 5 mps 742 mmHg 84%
    11:00 +2°C° 0 mm 5 mps 742 mmHg 81%
    12:00 +3°C° 0 mm 5 mps 742 mmHg 78%
    13:00 +3°C° 0 mm 5 mps 742 mmHg 77%
    14:00 +3°C° 0 mm 5 mps 742 mmHg 77%
    15:00 +2°C° 0 mm 5 mps 743 mmHg 77%
    16:00 +2°C° 0 mm 5 mps 743 mmHg 78%
    17:00 +1°C° 0 mm 5 mps 743 mmHg 80%
    18:00 +1°C° 0 mm 4 mps 743 mmHg 82%
    19:00 +1°C° 0 mm 5 mps 743 mmHg 83%
    20:00 0°C° 0 mm 5 mps 743 mmHg 83%
    21:00 0°C° 0 mm 5 mps 743 mmHg 84%
    22:00 0°C° 0 mm 5 mps 743 mmHg 84%
    23:00 0°C° 0 mm 5 mps 742 mmHg 85%

    Tomorrow, 12 December, Thursday

    Time Temperature Precipitation Wind Pressure Humidity
    00:00 0°C° 0 mm 5 mps 742 mmHg 85%
    01:00 0°C° 0 mm 4 mps 741 mmHg 87%
    02:00 0°C° 0 mm 4 mps 740 mmHg 88%
    03:00 0°C° 0 mm 4 mps 739 mmHg 90%
    04:00 +1°C° 0.5 mm 5 mps 737 mmHg 92%
    05:00 +1°C° 0.5 mm 5 mps 736 mmHg 94%
    06:00 +2°C° 0.5 mm 5 mps 734 mmHg 96%
    07:00 +3°C° 0.9 mm 4 mps 733 mmHg 96%
    08:00 +4°C° 0.9 mm 4 mps 732 mmHg 96%
    09:00 +4°C° 0.9 mm 3 mps 731 mmHg 97%
    10:00 +5°C° 0 mm 4 mps 730 mmHg 94%
    11:00 +5°C° 0 mm 4 mps 729 mmHg 92%
    12:00 +6°C° 0 mm 4 mps 729 mmHg 89%
    13:00 +6°C° 0.1 mm 4 mps 728 mmHg 90%
    14:00 +6°C° 0.1 mm 4 mps 727 mmHg 90%
    15:00 +6°C° 0.1 mm 4 mps 726 mmHg 91%
    16:00 +5°C° 0.8 mm 4 mps 725 mmHg 92%
    17:00 +5°C° 0.8 mm 4 mps 725 mmHg 92%
    18:00 +5°C° 0.8 mm 5 mps 724 mmHg 93%
    19:00 +4°C° 1.2 mm 4 mps 724 mmHg 93%
    20:00 +4°C° 1.2 mm 4 mps 723 mmHg 93%
    21:00 +4°C° 1.2 mm 4 mps 723 mmHg 93%
    22:00 +3°C° 0.1 mm 5 mps 723 mmHg 91%
    23:00 +3°C° 0.1 mm 6 mps 723 mmHg 90%

    Day after tomorrow, 13 December, Friday

    Time Temperature Precipitation Wind Pressure Humidity
    00:00 +3°C° 0.1 mm 6 mps 723 mmHg 89%
    01:00 +3°C° 0.2 mm 6 mps 723 mmHg 88%
    02:00 +3°C° 0.2 mm 6 mps 723 mmHg 87%
    03:00 +3°C° 0.2 mm 6 mps 723 mmHg 86%
    04:00 +3°C° 0.1 mm 6 mps 724 mmHg 87%
    05:00 +3°C° 0.1 mm 6 mps 725 mmHg 89%
    06:00 +3°C° 0.1 mm 6 mps 726 mmHg 90%
    07:00 +3°C° 0 mm 7 mps 727 mmHg 88%
    08:00 +4°C° 0 mm 7 mps 729 mmHg 86%
    09:00 +4°C° 0 mm 7 mps 731 mmHg 84%
    10:00 +4°C° 0 mm 7 mps 732 mmHg 83%
    11:00 +4°C° 0 mm 6 mps 732 mmHg 81%
    12:00 +4°C° 0 mm 6 mps 733 mmHg 79%
    13:00 +3°C° 0 mm 5 mps 733 mmHg 81%
    14:00 +3°C° 0 mm 5 mps 733 mmHg 83%
    15:00 +4°C° 0 mm 4 mps 733 mmHg 85%
    16:00 +3°C° 0 mm 4 mps 732 mmHg 86%
    17:00 +3°C° 0 mm 4 mps 732 mmHg 87%
    18:00 +2°C° 0 mm 3 mps 731 mmHg 89%
    19:00 +2°C° 0.7 mm 3 mps 729 mmHg 91%
    20:00 +1°C° 0.7 mm 3 mps 727 mmHg 94%
    21:00 +1°C° 0.7 mm 3 mps 726 mmHg 97%
    22:00 +1°C° 1.3 mm 3 mps 725 mmHg 97%
    23:00 +1°C° 1.3 mm 3 mps 725 mmHg 98%

    14 December, Saturday

    Time Temperature Precipitation Wind Pressure Humidity
    00:00 +1°C° 1.3 mm 3 mps 724 mmHg 98%
    01:00 0°C° 1.1 mm 4 mps 725 mmHg 97%
    02:00 -1°C° 1.1 mm 6 mps 726 mmHg 96%
    03:00 -1°C° 1.1 mm 8 mps 727 mmHg 95%
    04:00 -1°C° 0.2 mm 8 mps 728 mmHg 91%
    05:00 -1°C° 0.2 mm 8 mps 729 mmHg 87%
    06:00 -1°C° 0.2 mm 8 mps 730 mmHg 82%
    07:00 -1°C° 0 mm 8 mps 730 mmHg 81%
    08:00 -2°C° 0 mm 8 mps 730 mmHg 80%
    09:00 -2°C° 0 mm 8 mps 731 mmHg 78%
    10:00 -2°C° 0 mm 8 mps 731 mmHg 79%
    11:00 -3°C° 0 mm 9 mps 731 mmHg 80%
    12:00 -1°C° 0 mm 9 mps 731 mmHg 80%
    13:00 -3°C° 0.1 mm 9 mps 732 mmHg 78%
    14:00 -2°C° 0.1 mm 8 mps 732 mmHg 75%
    15:00 -2°C° 0.1 mm 8 mps 733 mmHg 73%
    16:00 -2°C° 0 mm 8 mps 733 mmHg 72%
    17:00 -2°C° 0 mm 8 mps 733 mmHg 72%
    18:00 -3°C° 0 mm 7 mps 733 mmHg 71%
    19:00 -3°C° 0 mm 7 mps 734 mmHg 73%
    20:00 -3°C° 0 mm 7 mps 734 mmHg 75%
    21:00 -3°C° 0 mm 7 mps 734 mmHg 77%
    22:00 -4°C° 0 mm 6 mps 734 mmHg 79%
    23:00 -4°C° 0 mm 5 mps 734 mmHg 82%

    15 December, Sunday

    Time Temperature Precipitation Wind Pressure Humidity
    00:00 -3°C° 0 mm 4 mps 733 mmHg 84%
    01:00 -3°C° 0 mm 4 mps 733 mmHg 85%
    02:00 -3°C° 0 mm 4 mps 733 mmHg 87%
    03:00 -3°C° 0 mm 4 mps 733 mmHg 88%
    04:00 -2°C° 0.3 mm 5 mps 734 mmHg 87%
    05:00 -2°C° 0.3 mm 5 mps 734 mmHg 87%
    06:00 -2°C° 0.3 mm 6 mps 734 mmHg 87%
    07:00 -2°C° 0.5 mm 6 mps 735 mmHg 87%
    08:00 -1°C° 0.5 mm 5 mps 735 mmHg 86%
    09:00 -1°C° 0.5 mm 5 mps 735 mmHg 86%
    10:00 0°C° 0 mm 5 mps 736 mmHg 83%
    11:00 -1°C° 0 mm 6 mps 737 mmHg 81%
    12:00 +1°C° 0 mm 6 mps 737 mmHg 79%
    13:00 0°C° 0 mm 5 mps 737 mmHg 81%
    14:00 0°C° 0 mm 4 mps 737 mmHg 83%
    15:00 +1°C° 0 mm 3 mps 737 mmHg 85%
    16:00 0°C° 0 mm 3 mps 737 mmHg 88%
    17:00 -1°C° 0 mm 3 mps 737 mmHg 92%
    18:00 -1°C° 0 mm 3 mps 737 mmHg 95%
    19:00 -1°C° 0.3 mm 3 mps 737 mmHg 96%
    20:00 -1°C° 0.3 mm 3 mps 737 mmHg 96%
    21:00 -1°C° 0.3 mm 3 mps 737 mmHg 97%
    22:00 -1°C° 0 mm 3 mps 737 mmHg 96%
    23:00 -1°C° 0 mm 2 mps 737 mmHg 95%

    16 December, Monday

    Time Temperature Precipitation Wind Pressure Humidity
    00:00 -1°C° 0 mm 2 mps 737 mmHg 93%
    01:00 -1°C° 0.2 mm 2 mps 736 mmHg 93%
    02:00 +1°C° 0.2 mm 2 mps 736 mmHg 92%
    03:00 0°C° 0.2 mm 3 mps 736 mmHg 91%
    04:00 +1°C° 0.1 mm 2 mps 736 mmHg 93%
    05:00 -1°C° 0.1 mm 2 mps 736 mmHg 94%
    06:00 -1°C° 0.1 mm 2 mps 736 mmHg 95%
    07:00 -1°C° 0 mm 2 mps 737 mmHg 95%
    08:00 -1°C° 0 mm 3 mps 738 mmHg 95%
    09:00 -1°C° 0 mm 3 mps 738 mmHg 95%
    10:00 0°C° 0 mm 3 mps 739 mmHg 94%
    11:00 0°C° 0 mm 3 mps 739 mmHg 93%
    12:00 +1°C° 0 mm 3 mps 740 mmHg 92%
    13:00 +1°C° 0 mm 3 mps 740 mmHg 91%
    14:00 0°C° 0 mm 3 mps 740 mmHg 91%
    15:00 0°C° 0 mm 3 mps 741 mmHg 90%
    16:00 0°C° 0 mm 3 mps 741 mmHg 91%
    17:00 -1°C° 0 mm 3 mps 741 mmHg 91%
    18:00 -1°C° 0 mm 3 mps 742 mmHg 92%
    19:00 -1°C° 0 mm 3 mps 742 mmHg 92%
    20:00 -2°C° 0 mm 3 mps 742 mmHg 92%
    21:00 -2°C° 0 mm 3 mps 743 mmHg 92%
    22:00 -2°C° 0 mm 3 mps 743 mmHg 92%
    23:00 -2°C° 0 mm 3 mps 743 mmHg 92%
    Show more